全球星 M082星 (GLOBALSTAR M082)

导读

GLOBALSTAR M082是美国全球星(GLOBALSTAR)系统下的低轨移动通信卫星,于2011年12月28日发射升空。作为第二代全球星星座的组成部分,该卫星运行在近地轨道,为全球提供数字语音、数据传输、短信息及漫游通信服务,补网增强了全球星系统的覆盖稳定性与服务容量,支撑偏远地区、地面网络覆盖盲区的移动通信需求,延续了全球星系统天地一体的通信服务能力。

基本信息
目录编号:
38042
目录名称:
GLOBALSTAR M082
国际标识:
2011-080C
轨道中心:
EARTH
卫星名称:
全球星 M082星
卫星全名:
全球星 M082星 (GLOBALSTAR M082)
卫星状态:
在轨 (已飞行5371 天)
发射日期:
2011-12-28 UTC
国别 :
(GLOB)
星等 :
--
该卫星已列入 空间交会检测服务 Space Conjunction Data Service (SCDS) ,当前飞行风险评估等级: 无高风险
轨道信息
数据来源 国际轨道数据 AOE轨道数据
星历时间 2026-09-11T06:55:01+0800
10小时前
查看轨道信息
2026-09-05T09:00:00+0800
6天前
查看轨道信息
半长轴 7791.756km 7791.758km
偏心率 0.0000975 0.0000776
轨道倾角 52.007° 52.006°
近地点辐角 98.010° 92.382°
升交点赤经 73.431° 91.432°
平近点角 66.307° 188.419°
近地点 1412.859km 1413.016km
远地点 1414.379km 1414.226km
周期 114.081分钟 114.081分钟
每日圈数 12.622629 12.622623
详细信息
固有亮度:
5
最大亮度:
7.2
平衡模式:
三轴稳定
覆盖范围:
全球
运营商:
全球星公司
运营商所在国:
美国
使用方式:
暂无
卫星简介
全球星星座由48颗卫星加8颗备份星组成。这些卫星分布在8个倾角为52度的圆形轨道平面上,每个轨道平面6颗卫星,另有1 颗备用星。轨道高度约为1414km,传输时延和处理时延小于300ms,整个系统的覆盖区为南北纬70度以内的地区。该卫星仍在工作。
2D轨道图
3D轨道图
轨道高度分析图
轨道倾角分析图
轨道综合分析图
查看轨道综合分析图
交会数据列表
事件ID 空间交会对象 最接近时刻(TCA) 交会距离 交会风险概率(CRP) 交会风险指数(CRI) 操作
CDM_260905-105702-379103-804225
2026-09-05T
10:57:12+0000
1.897 km
极远距离
3.057736E-6 低风险 0.45
CDM_260912-090901-833603-804224
2026-09-12T
09:09:12+0000
2.741 km
极远距离
1.411628E-6 低风险 0.38
与全量物体交会距离演化趋势
与全量物体交会风险概率演化趋势